Location: Unspecified
(51.0950°N, 12.9690°E)
Time: 22:54:53
(UTC+00:00)

Cosmos 1371 Rocket - Pass Details

Date: 28 October 2021
Orbit: 754 x 789 km, 74.0° (Epoch: 01 December)

Event Time Altitude Azimuth Distance (km) Brightness Sun altitude
Rises 18:45:23 0° 213° (SSW) 3,233 7.5 -28.1°
Reaches altitude 10° 18:47:47 10° 217° (SW) 2,305 6.7 -28.4°
Maximum altitude 18:52:58 62° 298° (WNW) 861 4.4 -29.2°
Enters shadow 18:53:36 57° 333° (NNW) 899 4.4 -29.3°
